View from above orbital plane
|
View from above satellite
|
Ground track
|
The orbit data is extracted from the following two-line orbital elements,
1 38782U 12052A 21101.83851991 .00000030 00000-0 11353-4 0 9997
2 38782 97.7191 155.9173 0015685 276.6928 83.2485 14.76063327460201
Epoch (UTC): | 11 April 2021 20:07:28 |
Eccentricity: | 0.0015685 |
inclination: | 97.7191° |
perigee height: | 631 km |
apogee height: | 653 km |
right ascension of ascending node: | 155.9173° |
argument of perigee: | 276.6928° |
revolutions per day: | 14.76063327 |
mean anomaly at epoch: | 83.2485° |
orbit number at epoch: | 46020 |
The dashed part of the orbit path shows where the satellite is in the earth's shadow,
|
|